Location: Joplin, MO
(37.0842°N, 94.5133°W)
Time: 21:00:44
(UTC+02:00)

Courier 1B Rocket - Pass Details

Date: 05 April 2023
Orbit: 920 x 1202 km, 28.2° (Epoch: 05 June)

Event Time Altitude Azimuth Distance (km) Brightness Sun altitude
Rises 21:26:38 0° 203° (SSW) 4,040 8.7 55.7°
Reaches altitude 10° 21:31:05 10° 180° (S) 3,108 8.3 55.2°
Maximum altitude 21:34:50 14° 151° (SSE) 2,808 7.8 54.8°
Drops below altitude 10° 21:38:37 10° 122° (ESE) 3,125 7.8 54.4°
Sets 21:43:05 0° 99° (E) 4,077 8.1 53.9°
